EW9310 Weather Reports


time (UTC)temp
C
wind
direction
speed
KPH
gust
KPH
rain 1hr
cm
rain 24hr
cm
rain mn
cm
humidity
%
barometer
mb
20260509174007 13 94 3.2 12.9 0.00 0.00 0.00 72 1007.0
20260509173503 13 115 0.0 11.3 0.00 0.00 0.00 74 1007.0
20260509173012 13 167 6.4 11.3 0.00 0.00 0.00 72 1007.1
20260509172507 13 90 4.8 12.9 0.00 0.00 0.00 72 1007.1
20260509172008 13 49 3.2 14.5 0.00 0.00 0.00 74 1007.1
20260509171516 13 165 8.0 14.5 0.00 0.00 0.00 73 1007.2
20260509171007 13 142 4.8 16.1 0.00 0.00 0.00 74 1007.3
20260509170507 13 91 4.8 16.1 0.00 0.00 0.00 73 1007.4
20260509170018 13 86 8.0 12.9 0.00 0.00 0.00 74 1007.5
20260509165510 12 118 4.8 11.3 0.00 0.00 0.00 74 1007.5
20260509165010 12 130 4.8 11.3 0.00 0.00 0.00 74 1007.6
20260509164520 12 128 4.8 17.7 0.00 0.00 0.00 74 1007.6
20260509164007 12 89 8.0 17.7 0.00 0.00 0.00 73 1007.7
20260509163504 12 116 9.7 14.5 0.00 0.00 0.00 74 1007.8
20260509163023 12 38 9.7 14.5 0.00 0.00 0.00 74 1007.9
20260509162508 12 147 8.0 14.5 0.00 0.00 0.00 74 1008.0
20260509162008 12 142 4.8 9.7 0.00 0.00 0.00 74 1008.0
20260509161520 12 115 4.8 9.7 0.00 0.00 0.00 76 1008.0
20260509161006 11 134 1.6 9.7 0.00 0.00 0.00 76 1008.1
20260509160507 11 96 3.2 12.9 0.00 0.00 0.00 76 1008.2
20260509160022 11 145 8.0 12.9 0.00 0.00 0.00 75 1008.2
20260509155508 11 104 6.4 12.9 0.00 0.00 0.00 75 1008.2
20260509155010 12 95 3.2 12.9 0.00 0.00 0.00 74 1008.2
20260509154508 12 144 6.4 11.3 0.00 0.00 0.00 74 1008.3
20260509154006 12 81 6.4 12.9 0.00 0.00 0.00 74 1008.3
20260509153509 12 154 8.0 14.5 0.00 0.00 0.00 74 1008.3
20260509153019 12 153 6.4 16.1 0.00 0.00 0.00 74 1008.3
20260509152504 12 122 6.4 16.1 0.00 0.00 0.00 73 1008.3
20260509152009 12 83 11.3 16.1 0.00 0.00 0.00 73 1008.5
20260509151519 12 110 3.2 12.9 0.00 0.00 0.00 74 1008.6
20260509151007 12 98 4.8 12.9 0.00 0.03 0.00 74 1008.6
20260509150507 12 64 4.8 12.9 0.00 0.03 0.00 75 1008.6
20260509150022 11 154 4.8 14.5 0.00 0.03 0.00 75 1008.7
20260509145509 11 178 4.8 14.5 0.00 0.03 0.00 75 1008.7
20260509145014 11 120 8.0 14.5 0.00 0.03 0.00 75 1008.7
20260509144510 11 103 8.0 14.5 0.00 0.03 0.00 74 1008.8
20260509144006 11 108 4.8 12.9 0.00 0.03 0.00 75 1008.9
20260509143504 11 147 4.8 14.5 0.00 0.03 0.00 74 1008.8
20260509143018 11 157 3.2 14.5 0.00 0.03 0.00 77 1009.0
20260509142509 11 56 6.4 14.5 0.00 0.03 0.00 75 1009.0
20260509142006 10 78 8.0 14.5 0.00 0.03 0.00 75 1009.0
20260509141529 10 106 6.4 14.5 0.00 0.03 0.00 75 1009.0
20260509141009 11 98 8.0 14.5 0.00 0.03 0.00 74 1009.1
20260509140511 10 154 6.4 11.3 0.00 0.03 0.00 75 1009.1
20260509140026 10 128 6.4 12.9 0.00 0.03 0.00 75 1009.1
20260509135508 10 360 3.2 12.9 0.00 0.03 0.00 75 1009.1
20260509135011 10 21 4.8 12.9 0.00 0.03 0.00 76 1009.1
20260509134524 10 90 8.0 12.9 0.00 0.03 0.00 76 1009.1
20260509134003 9 121 3.2 14.5 0.00 0.03 0.00 77 1009.2
20260509133506 9 107 8.0 14.5 0.00 0.03 0.00 77 1009.2
20260509133024 9 80 4.8 9.7 0.00 0.03 0.00 77 1009.2
20260509132509 8 154 3.2 9.7 0.00 0.03 0.00 77 1009.3
20260509132011 8 92 4.8 9.7 0.00 0.03 0.00 77 1009.4
20260509131530 8 105 1.6 11.3 0.00 0.03 0.00 77 1009.5
20260509131013 8 132 4.8 11.3 0.00 0.03 0.00 77 1009.5
20260509130514 8 98 4.8 11.3 0.00 0.03 0.00 78 1009.5
20260509130026 8 109 4.8 11.3 0.00 0.03 0.00 78 1009.6
20260509125508 8 94 4.8 11.3 0.00 0.03 0.00 78 1009.5
20260509125007 8 121 0.0 9.7 0.00 0.03 0.00 78 1009.5
20260509124514 8 112 3.2 9.7 0.00 0.03 0.00 78 1009.4
20260509124008 7 82 3.2 8.0 0.00 0.03 0.00 78 1009.4
20260509123507 7 142 4.8 8.0 0.00 0.03 0.00 79 1009.4
20260509123020 7 122 3.2 8.0 0.00 0.03 0.00 79 1009.5
20260509122508 7 123 3.2 6.4 0.00 0.03 0.00 79 1009.5
20260509122009 7 114 3.2 6.4 0.00 0.03 0.00 79 1009.5
20260509121531 7 109 1.6 8.0 0.00 0.03 0.00 81 1009.5
20260509121010 7 97 3.2 9.7 0.00 0.03 0.00 81 1009.6
20260509120509 6 94 3.2 9.7 0.00 0.03 0.00 80 1009.6
20260509120027 6 148 1.6 6.4 0.00 0.03 0.00 81 1009.6
20260509115506 6 128 1.6 4.8 0.00 0.03 0.00 81 1009.6
20260509115007 6 109 1.6 4.8 0.00 0.03 0.00 81 1009.6
20260509114517 6 96 1.6 4.8 0.00 0.03 0.00 81 1009.6
20260509114009 6 90 1.6 4.8 0.00 0.03 0.00 82 1009.7
20260509113507 6 72 1.6 8.0 0.00 0.03 0.00 82 1009.7
20260509113021 6 89 1.6 8.0 0.00 0.03 0.00 82 1009.6
20260509112509 6 132 1.6 8.0 0.00 0.03 0.00 83 1009.6
20260509112010 5 109 3.2 8.0 0.00 0.03 0.00 84 1009.5
20260509111527 5 51 0.0 6.4 0.00 0.03 0.00 86 1009.6
20260509111011 5 119 1.6 4.8 0.00 0.03 0.00 88 1009.5
20260509110510 5 98 0.0 3.2 0.00 0.03 0.00 88 1009.5
20260509110024 5 112 0.0 3.2 0.00 0.03 0.00 89 1009.5
20260509105510 4 127 0.0 4.8 0.00 0.03 0.00 89 1009.5
20260509105010 4 109 0.0 4.8 0.00 0.03 0.00 91 1009.5
20260509104522 3 132 0.0 3.2 0.00 0.03 0.00 91 1009.4
20260509104006 3 140 0.0 3.2 0.00 0.03 0.00 91 1009.5
20260509103507 3 176 0.0 3.2 0.00 0.03 0.00 91 1009.5
20260509103025 3 131 0.0 3.2 0.00 0.03 0.00 92 1009.5
20260509102512 3 132 0.0 3.2 0.00 0.03 0.00 91 1009.5
20260509102010 3 150 0.0 3.2 0.00 0.03 0.00 92 1009.6
20260509101528 3 101 0.0 3.2 0.00 0.03 0.00 91 1009.5
20260509101010 3 99 0.0 3.2 0.00 0.03 0.00 92 1009.5
20260509100509 2 155 0.0 3.2 0.00 0.03 0.00 91 1009.4
20260509100026 2 155 0.0 3.2 0.00 0.03 0.00 91 1009.5
20260509095507 2 155 0.0 3.2 0.00 0.03 0.00 91 1009.4
20260509095007 2 80 0.0 3.2 0.00 0.03 0.00 92 1009.4
20260509094523 2 171 0.0 4.8 0.00 0.03 0.00 92 1009.3
20260509094007 2 157 0.0 4.8 0.00 0.03 0.00 92 1009.3
20260509093508 2 167 0.0 4.8 0.00 0.03 0.00 91 1009.4
20260509093028 2 167 0.0 4.8 0.00 0.03 0.00 92 1009.4
20260509092509 2 167 0.0 4.8 0.00 0.03 0.00 92 1009.5
20260509092011 2 167 0.0 4.8 0.00 0.03 0.00 92 1009.4
20260509091533 2 163 0.0 3.2 0.00 0.03 0.00 92 1009.5
20260509091011 2 163 0.0 3.2 0.00 0.03 0.00 92 1009.5
20260509090508 2 180 0.0 3.2 0.00 0.03 0.00 91 1009.5
20260509090020 2 180 0.0 3.2 0.00 0.03 0.00 91 1009.6
20260509085508 2 180 0.0 3.2 0.00 0.03 0.00 91 1009.7
20260509085007 2 180 0.0 3.2 0.00 0.03 0.00 91 1009.8
20260509084528 2 180 0.0 3.2 0.00 0.03 0.00 92 1009.9
20260509084004 2 180 0.0 3.2 0.00 0.03 0.00 91 1009.9
20260509083507 2 180 0.0 3.2 0.00 0.03 0.00 91 1010.0
20260509083026 2 180 0.0 3.2 0.00 0.03 0.00 91 1009.9
20260509082503 2 180 0.0 3.2 0.00 0.03 0.00 91 1010.0
20260509082003 2 180 0.0 1.6 0.00 0.03 0.00 91 1010.1
20260509081514 1 180 0.0 1.6 0.00 0.03 0.00 90 1010.2
20260509081007 1 180 0.0 1.6 0.00 0.03 0.00 90 1010.2
20260509080510 1 180 0.0 3.2 0.00 0.03 0.00 91 1010.2
20260509080025 1 180 0.0 3.2 0.00 0.03 0.00 90 1010.2
20260509075505 1 180 0.0 3.2 0.00 0.03 0.00 90 1010.2
20260509075013 1 180 0.0 3.2 0.00 0.03 0.00 90 1010.2
20260509074527 1 180 0.0 3.2 0.00 0.03 0.00 90 1010.3
20260509074003 1 180 0.0 3.2 0.00 0.03 0.00 90 1010.3
20260509073503 1 180 0.0 3.2 0.00 0.03 0.00 90 1010.3
20260509073041 1 180 0.0 3.2 0.00 0.03 0.00 90 1010.3
20260509072503 1 180 0.0 0.0 0.00 0.03 0.00 90 1010.3
20260509072007 1 180 0.0 0.0 0.00 0.03 0.00 89 1010.3
20260509071514 1 180 0.0 3.2 0.00 0.03 0.00 89 1010.3
20260509071006 1 180 0.0 3.2 0.00 0.03 0.00 89 1010.3
20260509070511 1 180 0.0 0.0 0.00 0.03 0.00 89 1010.3
20260509070022 2 180 0.0 0.0 0.00 0.03 0.00 89 1010.3
20260509065510 2 180 0.0 3.2 0.00 0.03 0.00 89 1010.4
20260509065011 2 180 0.0 3.2 0.00 0.03 0.00 89 1010.4
20260509064526 2 180 0.0 3.2 0.00 0.03 0.00 89 1010.4
20260509064002 2 188 0.0 3.2 0.00 0.03 0.00 90 1010.4
20260509063504 2 192 0.0 4.8 0.00 0.03 0.00 90 1010.5
20260509063010 1 160 1.6 4.8 0.00 0.03 0.00 91 1010.5
20260509062508 1 167 0.0 4.8 0.00 0.03 0.00 91 1010.7
20260509062007 1 167 0.0 4.8 0.00 0.03 0.00 91 1010.7
20260509061516 1 139 0.0 3.2 0.00 0.03 0.00 91 1010.7
20260509061006 1 215 0.0 3.2 0.00 0.03 0.00 91 1010.8
20260509060509 1 215 0.0 3.2 0.00 0.05 0.00 91 1010.9
20260509060024 1 215 0.0 0.0 0.00 0.05 0.00 90 1011.0
20260509055510 1 215 0.0 0.0 0.00 0.05 0.00 90 1011.1
20260509055009 1 215 0.0 0.0 0.00 0.05 0.00 90 1011.1
20260509054535 1 215 0.0 0.0 0.00 0.05 0.00 90 1011.1
20260509054004 1 215 0.0 0.0 0.00 0.05 0.00 90 1011.1
20260509053511 1 215 0.0 0.0 0.00 0.05 0.00 89 1011.2
20260509053031 1 215 0.0 3.2 0.00 0.05 0.00 90 1011.2
20260509052504 1 215 0.0 3.2 0.00 0.05 0.00 89 1011.3
20260509052003 1 215 0.0 0.0 0.00 0.05 0.00 89 1011.2
20260509051527 1 215 0.0 0.0 0.00 0.05 0.00 89 1011.3
20260509051007 1 215 0.0 0.0 0.00 0.05 0.00 89 1011.3
20260509050511 1 215 0.0 0.0 0.00 0.05 0.00 88 1011.3
20260509050036 1 215 0.0 0.0 0.00 0.05 0.00 88 1011.4
20260509045507 1 215 0.0 0.0 0.00 0.05 0.00 88 1011.4
20260509045010 1 215 0.0 0.0 0.00 0.05 0.00 88 1011.5
20260509044526 1 215 0.0 0.0 0.00 0.05 0.00 87 1011.5
20260509044002 1 215 0.0 0.0 0.00 0.05 0.00 87 1011.5
20260509043506 1 215 0.0 0.0 0.00 0.05 0.00 86 1011.6
20260509043033 2 215 0.0 0.0 0.00 0.05 0.00 86 1011.6
20260509042509 2 215 0.0 0.0 0.00 0.05 0.00 86 1011.6
20260509042007 2 215 0.0 0.0 0.00 0.05 0.00 86 1011.7
20260509041522 2 215 0.0 3.2 0.00 0.05 0.00 86 1011.7
20260509041012 2 215 0.0 3.2 0.00 0.05 0.00 86 1011.7
20260509040510 2 215 0.0 1.6 0.00 0.05 0.00 86 1011.7
20260509040025 2 215 0.0 1.6 0.00 0.05 0.00 85 1011.7
20260509035509 2 215 0.0 0.0 0.00 0.05 0.05 85 1011.7
20260509035007 2 215 0.0 0.0 0.00 0.05 0.05 85 1011.7
20260509034513 2 215 0.0 3.2 0.00 0.05 0.05 85 1011.7
20260509034010 2 215 0.0 3.2 0.00 0.05 0.05 85 1011.6
20260509033505 2 215 0.0 0.0 0.00 0.05 0.05 85 1011.7
20260509033020 2 215 0.0 0.0 0.00 0.05 0.05 83 1011.6
20260509032506 2 215 0.0 0.0 0.00 0.05 0.05 83 1011.6
20260509032012 2 215 0.0 0.0 0.00 0.05 0.05 83 1011.7
20260509031523 2 215 0.0 0.0 0.00 0.05 0.05 83 1011.6
20260509031010 2 215 0.0 3.2 0.00 0.05 0.05 83 1011.6
20260509030516 2 215 0.0 3.2 0.00 0.05 0.05 83 1011.7
20260509030036 2 215 0.0 1.6 0.00 0.05 0.05 82 1011.7
20260509025510 2 215 0.0 1.6 0.00 0.05 0.05 81 1011.7
20260509025007 3 215 0.0 0.0 0.00 0.05 0.05 81 1011.7
20260509024511 3 215 0.0 1.6 0.00 0.05 0.05 81 1011.7
20260509024010 3 215 0.0 1.6 0.00 0.05 0.05 81 1011.7
20260509023510 3 215 0.0 1.6 0.00 0.05 0.05 80 1011.7
20260509023029 3 215 0.0 0.0 0.00 0.05 0.05 80 1011.7
20260509022506 3 215 0.0 0.0 0.00 0.05 0.05 78 1011.8
20260509022011 3 215 0.0 0.0 0.00 0.05 0.05 78 1011.8
20260509021530 3 215 0.0 0.0 0.00 0.05 0.05 77 1011.9
20260509021012 4 215 0.0 0.0 0.00 0.05 0.05 77 1011.9
20260509020514 4 215 0.0 0.0 0.00 0.05 0.05 77 1012.0
20260509020028 4 215 0.0 0.0 0.00 0.05 0.05 77 1011.9
20260509015509 5 215 0.0 0.0 0.00 0.05 0.05 76 1011.9
20260509015011 5 215 0.0 0.0 0.00 0.05 0.05 76 1011.9
20260509014514 5 215 0.0 0.0 0.00 0.05 0.05 76 1011.8
20260509014006 5 215 0.0 0.0 0.00 0.05 0.05 74 1011.8
20260509013507 5 215 0.0 0.0 0.00 0.05 0.05 74 1011.7
20260509013041 5 215 0.0 0.0 0.00 0.05 0.05 74 1011.6
20260509012509 5 215 0.0 0.0 0.00 0.05 0.05 73 1011.5
20260509012008 6 215 0.0 3.2 0.00 0.05 0.05 72 1011.4
20260509011528 6 215 0.0 3.2 0.00 0.05 0.05 72 1011.3
20260509011009 6 215 0.0 1.6 0.00 0.05 0.05 71 1011.2
20260509010513 6 215 0.0 3.2 0.00 0.05 0.05 70 1011.2
20260509010031 6 215 0.0 3.2 0.00 0.05 0.05 69 1011.2
20260509005510 6 215 0.0 3.2 0.00 0.05 0.05 66 1011.1
20260509005009 7 215 0.0 3.2 0.00 0.05 0.05 64 1011.0
20260509004534 7 215 0.0 3.2 0.00 0.05 0.05 63 1011.0
20260509004011 7 250 0.0 0.0 0.00 0.05 0.05 65 1011.0
20260509003511 7 250 0.0 0.0 0.00 0.05 0.05 63 1011.0
20260509003022 8 250 0.0 0.0 0.00 0.05 0.05 61 1011.0
20260509002509 8 250 0.0 0.0 0.00 0.05 0.05 60 1011.0
20260509002007 8 250 0.0 0.0 0.00 0.05 0.05 57 1010.8
20260509001524 9 250 0.0 0.0 0.00 0.05 0.05 53 1010.8
20260509001008 9 250 0.0 0.0 0.00 0.05 0.05 51 1010.8
20260509000503 9 250 0.0 3.2 0.00 0.05 0.05 51 1010.8
20260509000010 10 250 0.0 3.2 0.00 0.05 0.05 49 1010.7
20260508235503 10 250 0.0 0.0 0.00 0.05 0.05 49 1010.7
20260508235007 10 250 0.0 3.2 0.00 0.05 0.05 48 1010.7
20260508234514 11 250 0.0 3.2 0.00 0.05 0.05 49 1010.7
20260508234007 11 250 0.0 3.2 0.00 0.05 0.05 48 1010.7
20260508233511 11 250 0.0 3.2 0.00 0.05 0.05 43 1010.7
20260508233003 11 250 0.0 3.2 0.00 0.05 0.05 43 1010.7
20260508232502 12 250 0.0 3.2 0.00 0.05 0.05 45 1010.6
20260508232009 12 250 0.0 3.2 0.00 0.05 0.05 46 1010.6
20260508231505 12 250 0.0 3.2 0.00 0.05 0.05 43 1010.5
20260508231004 12 250 0.0 3.2 0.00 0.05 0.05 43 1010.6
20260508230504 12 250 0.0 3.2 0.00 0.05 0.05 41 1010.5
20260508230033 12 250 0.0 3.2 0.00 0.05 0.05 42 1010.5
20260508225507 13 250 0.0 3.2 0.00 0.05 0.05 40 1010.5
20260508225012 13 250 0.0 3.2 0.00 0.05 0.05 38 1010.5
20260508224529 13 331 0.0 3.2 0.00 0.05 0.05 37 1010.6
20260508224009 13 21 0.0 1.6 0.00 0.05 0.05 39 1010.7
20260508223503 12 9 1.6 1.6 0.00 0.05 0.05 38 1010.8
20260508223027 12 169 0.0 4.8 0.00 0.05 0.05 39 1010.7
20260508222504 12 186 3.2 6.4 0.00 0.05 0.05 36 1010.7
20260508222003 13 283 1.6 6.4 0.00 0.05 0.05 37 1010.6
20260508221526 13 214 1.6 6.4 0.00 0.05 0.05 35 1010.7
20260508221013 13 214 1.6 4.8 0.00 0.05 0.05 36 1010.7
20260508220503 13 24 3.2 4.8 0.00 0.05 0.05 41 1010.8
20260508220016 13 293 0.0 9.7 0.00 0.05 0.05 38 1010.8
20260508215512 12 5 3.2 12.9 0.00 0.05 0.05 38 1010.8
20260508215007 12 219 4.8 12.9 0.00 0.05 0.05 38 1010.9
20260508214520 12 209 1.6 6.4 0.00 0.05 0.05 37 1010.9
20260508214014 12 343 1.6 11.3 0.00 0.05 0.05 44 1011.0
20260508213511 12 284 1.6 14.5 0.00 0.05 0.05 39 1010.9
20260508213026 13 360 4.8 12.9 0.00 0.05 0.05 39 1010.9
20260508212508 13 239 1.6 6.4 0.00 0.05 0.05 41 1010.9
20260508212004 13 49 3.2 8.0 0.00 0.05 0.05 41 1010.9
20260508211510 13 300 3.2 6.4 0.00 0.05 0.05 41 1010.9
20260508211003 12 209 1.6 6.4 0.00 0.05 0.05 47 1010.9
20260508210511 12 167 1.6 4.8 0.00 0.05 0.05 47 1011.0
20260508210017 12 328 1.6 6.4 0.00 0.05 0.05 44 1011.0
20260508205508 12 21 3.2 6.4 0.00 0.05 0.05 43 1011.0
20260508205007 13 286 0.0 8.0 0.00 0.05 0.05 43 1011.1
20260508204522 13 15 3.2 8.0 0.00 0.05 0.05 43 1011.1
20260508204002 13 292 1.6 11.3 0.00 0.05 0.05 45 1011.1
20260508203512 13 349 1.6 11.3 0.00 0.05 0.05 47 1011.1
20260508203006 13 326 3.2 9.7 0.00 0.05 0.05 44 1010.9
20260508202506 13 338 1.6 9.7 0.00 0.05 0.05 51 1011.0
20260508202013 12 217 1.6 16.1 0.00 0.05 0.05 49 1011.2
20260508201511 12 185 9.7 17.7 0.00 0.05 0.05 48 1011.2
20260508201010 12 230 4.8 17.7 0.00 0.05 0.05 52 1011.3
20260508200504 12 192 8.0 19.3 0.00 0.05 0.05 51 1011.3
20260508200031 12 338 9.7 19.3 0.00 0.05 0.05 51 1011.4
20260508195505 11 246 6.4 11.3 0.00 0.05 0.05 52 1011.5
20260508195018 11 283 1.6 6.4 0.00 0.05 0.05 54 1011.6
20260508194526 11 304 3.2 6.4 0.00 0.05 0.05 54 1011.6
20260508194008 11 27 1.6 4.8 0.00 0.05 0.05 56 1011.7
20260508193503 11 319 1.6 12.9 0.00 0.05 0.05 58 1011.6
20260508193031 10 267 4.8 12.9 0.00 0.05 0.05 55 1011.6
20260508192506 11 267 8.0 17.7 0.00 0.05 0.05 52 1011.6
20260508192006 11 194 4.8 17.7 0.00 0.05 0.05 56 1011.5
20260508191518 11 277 6.4 16.1 0.00 0.05 0.05 54 1011.6
20260508191008 11 263 4.8 16.1 0.00 0.05 0.05 57 1011.6
20260508190507 11 229 9.7 20.9 0.00 0.05 0.05 54 1011.6
20260508190022 11 207 1.6 20.9 0.00 0.05 0.05 58 1011.7
20260508185507 11 263 8.0 14.5 0.00 0.05 0.05 58 1011.7
20260508185014 11 81 4.8 17.7 0.00 0.05 0.05 60 1011.8
20260508184508 11 225 9.7 19.3 0.00 0.05 0.05 59 1011.8
20260508184003 11 218 8.0 19.3 0.00 0.05 0.05 58 1011.8
20260508183511 11 232 6.4 16.1 0.00 0.05 0.05 57 1011.8
20260508183027 11 234 8.0 19.3 0.00 0.05 0.05 59 1011.9
20260508182504 11 209 8.0 19.3 0.00 0.05 0.05 60 1012.0
20260508182006 10 299 3.2 16.1 0.00 0.05 0.05 66 1012.1
20260508181539 10 181 6.4 17.7 0.00 0.05 0.05 62 1012.3
20260508181007 10 238 4.8 17.7 0.00 0.05 0.05 62 1012.3
20260508180511 10 276 9.7 17.7 0.00 0.05 0.05 62 1012.2
20260508180026 10 215 1.6 12.9 0.00 0.05 0.05 66 1012.2
20260508175508 9 230 3.2 19.3 0.00 0.05 0.05 66 1012.2
20260508175011 8 202 8.0 20.9 0.00 0.05 0.05 67 1012.3
20260508174508 8 205 8.0 20.9 0.00 0.05 0.05 66 1012.3